sat.trackr.live / text

‹ back to catalog

STARLINK-35985

NORAD 66815 · 2025-278AA

PAYLOAD ACTIVE UNKNOWN

§ Identity

Operator
Country
US
Launch date
2025-12-01
Launch site
AFETR
Launch vehicle
Mass (kg)
RCS (m²)

Purposes: comms

External: N2YO · Heavens-Above · Gunter

§ Orbital elements

Epoch: 2026-09-20T19:55:35.608800Z

Period
94.27 min
Inclination
43.0003°
Eccentricity
0.0000792
Mean motion
15.27590432 rev/d
Perigee alt
482.5 km
Apogee alt
483.6 km
Semi-major
6,861.2 km
B*
4.1611e-4
RAAN
92.2772°
Arg perigee
283.8956°
Mean anomaly
76.1808°
Rev number
4,626

§ Raw data

STARLINK-359851 66815U 25278AA  26263.83027325  .00011209  00000+0  41611-3 0  99972 66815  43.0003  92.2772 0000792 283.8956  76.1808 15.27590432 46262

JSON: /api/v1/satellites/66815 · /tle

For live sub-satellite position, see the globe view (requires WebGL).

§ Visibility from observer

Set your observer location to see the next 7 days of passes ≥ 10°. The values pass through the URL so the page stays shareable.

No JS? Fill the form by hand. The geolocation button needs JavaScript.